Location: Asbacherhof
(48.8543°N, 10.7903°E)
Time: 00:03:55
(UTC+00:00)

GP-B - Pass Details

Date: 26 May 2022
Orbit: 630 x 634 km, 89.8° (Epoch: 26 June)

Event Time Altitude Azimuth Distance (km) Brightness Sun altitude
Rises 00:49:44 0° 356° (N) 2,941 7.7 -16.9°
Reaches altitude 10° 00:52:01 10° 352° (N) 2,027 6.6 -16.7°
Maximum altitude 00:56:19 50° 277° (W) 811 3.5 -16.4°
Enters shadow 00:58:13 29° 219° (SW) 1,152 3.9 -16.3°
